Location: Gunnison Valley Observatory
(38.5087°N, 106.9386°W)
Time: 19:22:59
(UTC-06:00)

Amateur Radio Satellites - All Passes

Search period start: 24 May 2016 18:52
Search period end: 25 May 2016 18:52
Location: Gunnison Valley Observatory, 38.5087°N, 106.9386°W

Satellite Date Start Highest point End Downlink Frequencies (MHz)
Time Altitude Azimuth
NOAA 18 24 May 18:59:34 19:04:50 49° 259° (W) 19:10:07 137.9125
CINEMA 3 24 May 19:05:24 19:07:04 12° 64° (ENE) 19:08:43 145.822/145.860
AUBIESAT-1 24 May 19:29:07 19:33:01 36° 68° (ENE) 19:36:40 437.475
Cubesat XI-IV 24 May 19:29:28 19:34:11 32° 263° (W) 19:38:56 437.490
M-CUBED/EXP-1 PRIME 24 May 19:32:27 19:36:39 50° 69° (ENE) 19:40:34 437.505
BRITE-PL 24 May 19:33:54 19:38:39 29° 266° (W) 19:43:34 437.365/2234.400
RS-15 24 May 19:37:56 19:49:02 56° 310° (NW) 20:00:48 29.354- 29.394
NOAA 15 24 May 19:38:16 19:41:51 18° 267° (W) 19:45:28 137.62
STRAND 1 24 May 19:42:14 19:46:44 29° 96° (E) 19:51:11 437.568
DOVE 4 24 May 19:43:13 19:48:32 86° 257° (WSW) 19:53:42 437.250
CUBESAT XI-V 24 May 19:46:25 19:49:47 20° 294° (WNW) 19:53:09 437.345
PCSat 24 May 19:50:12 19:55:29 50° 58° (ENE) 20:00:43 145.827
Cosmos 2504 24 May 19:54:30 20:00:33 29° 289° (WNW) 20:06:52 435.465 / 435.565
CANX-2 24 May 19:58:07 20:02:03 40° 73° (ENE) 20:06:00 2200.000
SEEDS 24 May 20:07:51 20:11:33 32° 72° (ENE) 20:15:18 437.485
CUBEBUG 2 24 May 20:15:53 20:19:01 19° 68° (ENE) 20:22:06 437.445
GOMX 1 24 May 20:16:30 20:20:44 23° 267° (W) 20:24:59 467.674
Oscar 11 24 May 20:20:02 20:20:48 10° 63° (ENE) 20:21:34 145.826/435.025
CUTE-I 24 May 20:20:50 20:22:06 11° 271° (W) 20:23:21 437.470
CUTE 1.7 + AOD 2 24 May 20:25:44 20:29:55 76° 76° (ENE) 20:34:08 437.475
ZACube-1 24 May 20:27:18 20:28:25 11° 64° (ENE) 20:29:32 437.345
O/OREOS (USA 219) 24 May 20:31:46 20:36:16 74° 69° (ENE) 20:40:42 437.305
HO-68 24 May 20:35:25 20:42:34 80° 255° (WSW) 20:49:46 435.675
CINEMA 3 24 May 20:38:49 20:43:39 72° 258° (WSW) 20:48:19 145.822/145.860
BEESAT 3 24 May 20:42:56 20:45:37 17° 47° (NE) 20:48:18 437.485
GONETS M04 24 May 20:44:06 20:44:54 10° 74° (ENE) 20:45:41
UWE-3 24 May 20:50:43 20:54:33 31° 71° (ENE) 20:58:19 435.000/436.395/437.385
AIST 1 24 May 20:54:28 20:56:16 12° 85° (E) 20:58:04
COMPASS 1 24 May 20:59:40 21:03:48 85° 258° (WSW) 21:07:58 437.405
FUNcube-1 24 May 21:04:28 21:08:03 27° 70° (ENE) 21:11:36 145.935
AUBIESAT-1 24 May 21:04:42 21:07:31 17° 260° (W) 21:10:15 437.475
AAUSAT CUBESAT 2 24 May 21:05:30 21:09:37 89° 98° (E) 21:13:47 437.432
M-CUBED/EXP-1 PRIME 24 May 21:09:17 21:11:19 13° 261° (W) 21:13:19 437.505
PRISM 24 May 21:15:42 21:19:46 48° 100° (E) 21:23:47 437.425
STRAND 1 24 May 21:21:21 21:25:49 31° 292° (WNW) 21:30:18 437.568
PCSat 24 May 21:34:30 21:38:29 21° 254° (WSW) 21:42:26 145.827
CANX-2 24 May 21:35:40 21:38:04 15° 268° (W) 21:40:30 2200.000
BEESAT 2 24 May 21:38:33 21:42:15 35° 54° (NE) 21:45:55 435.950
SEEDS 24 May 21:44:26 21:47:19 18° 267° (W) 21:50:14 437.485
CUBEBUG 2 24 May 21:51:18 21:55:24 35° 262° (W) 21:59:24 437.445
Oscar 11 24 May 21:52:05 21:56:20 68° 259° (W) 22:00:38 145.826/435.025
RS-15 24 May 21:56:38 22:05:07 22° 340° (NNW) 22:13:55 29.354- 29.394
ZACube-1 24 May 21:59:57 22:04:12 62° 259° (W) 22:08:22 437.345
DELFI C3 24 May 22:02:44 22:06:40 73° 75° (ENE) 22:10:38 145.870
CUSAT 1 24 May 22:15:20 22:21:02 21° 63° (ENE) 22:26:13 437.405
BEESAT 3 24 May 22:19:46 22:23:30 42° 244° (WSW) 22:27:13 437.485
UWE-3 24 May 22:27:46 22:31:02 20° 265° (W) 22:34:15 435.000/436.395/437.385
HO-68 24 May 22:28:54 22:31:15 12° 272° (W) 22:33:36 435.675
AIST 1 24 May 22:29:06 22:33:21 50° 280° (W) 22:37:39
GONETS M04 24 May 22:31:13 22:39:55 67° 92° (E) 22:48:35
HUMSAT D 24 May 22:36:23 22:40:27 79° 78° (ENE) 22:44:33 437.325/437.525
AISAT 24 May 22:39:03 22:40:31 11° 63° (ENE) 22:41:59 437.250
FUNcube-1 24 May 22:40:54 22:44:16 22° 265° (W) 22:47:36 145.935
Cosmos 2499 24 May 22:44:24 22:51:04 44° 88° (E) 22:58:08 435.465 / 435.565
ISS 24 May 22:46:16 22:49:30 68° 139° (SE) 22:52:45 145.825
PRISM 24 May 22:52:32 22:54:39 14° 295° (WNW) 22:56:44 437.425
UNISAT 6 24 May 22:52:36 22:56:18 28° 97° (E) 23:00:02 437.425
PHONESAT 2.4 24 May 22:58:47 23:01:01 18° 148° (SSE) 23:03:15 2401.200-2431.200
TIGRISAT 24 May 23:01:08 23:05:00 32° 97° (E) 23:08:54 435.000
ESTCUBE 1 24 May 23:01:26 23:05:15 28° 69° (ENE) 23:09:05 437.505/2401.250
UKube-1 24 May 23:03:46 23:05:57 14° 64° (ENE) 23:08:06 .
BEESAT 2 24 May 23:17:05 23:19:49 18° 249° (WSW) 23:22:32 435.950
DANDE 24 May 23:20:24 23:28:01 36° 71° (ENE) 23:35:10 436.750
AIST 2 24 May 23:21:27 23:25:06 29° 52° (NE) 23:28:45 435.215
50 SAT 24 May 23:29:53 23:33:15 38° 73° (ENE) 23:36:39 437.505
ANTELSAT 24 May 23:33:29 23:37:47 84° 102° (ESE) 23:42:08 437.575/2403.000
VELOX 1 24 May 23:36:30 23:40:45 45° 72° (ENE) 23:45:01 145.980
CUBEBUG 1 24 May 23:38:00 23:42:14 47° 73° (ENE) 23:46:31 437.445
NANOSAT C BR1 24 May 23:38:14 23:40:33 14° 93° (E) 23:42:50 145.865
DX 1 24 May 23:42:11 23:46:20 44° 72° (ENE) 23:50:32 434.975-435.025
CUSAT 1 24 May 23:56:13 00:04:08 76° 264° (W) 00:10:45 437.405
SO-50 25 May 00:10:14 00:11:36 11° 106° (ESE) 00:13:00 436.795
AISAT 25 May 00:11:57 00:16:24 68° 259° (W) 00:20:52 437.250
RS-15 25 May 00:15:29 00:24:04 21° 17° (NNE) 00:32:45 29.354- 29.394
DUCHIFAT 1 25 May 00:17:02 00:20:57 38° 98° (E) 00:24:51 145.980
SPROUT 25 May 00:19:30 00:23:40 51° 74° (ENE) 00:27:51 437.525
ISS 25 May 00:23:53 00:26:14 18° 336° (NNW) 00:28:34 145.825
UNISAT 6 25 May 00:29:30 00:32:53 23° 291° (WNW) 00:36:18 437.425
GONETS M04 25 May 00:30:28 00:37:23 25° 292° (WNW) 00:44:21
PHONESAT 2.4 25 May 00:34:21 00:37:28 80° 161° (SSE) 00:40:36 2401.200-2431.200
JAS-2 25 May 00:35:25 00:39:49 17° 86° (E) 00:43:57 435.910
UKube-1 25 May 00:37:18 00:41:31 52° 260° (W) 00:45:46 .
Cosmos 2499 25 May 00:38:06 00:44:19 31° 289° (WNW) 00:50:56 435.465 / 435.565
ESTCUBE 1 25 May 00:38:15 00:41:59 25° 264° (W) 00:45:46 437.505/2401.250
TIGRISAT 25 May 00:38:23 00:41:29 20° 292° (WNW) 00:44:37 435.000
BUGSAT 1 25 May 00:48:27 00:52:16 40° 99° (E) 00:56:02 437.445
POPSAT HIP 1 25 May 00:51:20 00:55:32 73° 284° (WNW) 00:59:42 437.405
QB50P1 25 May 00:52:04 00:56:15 70° 284° (WNW) 01:00:24 145.935-145.965
QB50P2 25 May 00:53:15 00:57:26 64° 284° (WNW) 01:01:34 145.880/145.840
TISAT 1 25 May 00:55:35 00:59:27 35° 71° (ENE) 01:03:18 437.305
POLYITAN 1 25 May 00:55:41 00:59:51 62° 285° (WNW) 01:03:59 437.675
AIST 2 25 May 01:00:06 01:03:27 24° 248° (WSW) 01:06:48 435.215
DANDE 25 May 01:03:01 01:11:04 51° 269° (W) 01:18:30 436.750
50 SAT 25 May 01:05:53 01:07:09 11° 268° (W) 01:08:26 437.505
NANOSAT C BR1 25 May 01:12:30 01:16:28 41° 287° (WNW) 01:20:23 145.865
VELOX 1 25 May 01:14:48 01:17:26 15° 267° (W) 01:20:03 145.980
CUBEBUG 1 25 May 01:16:21 01:18:45 14° 268° (W) 01:21:11 437.445
DX 1 25 May 01:20:12 01:22:44 15° 267° (W) 01:25:17 434.975-435.025
CUSAT 1 25 May 01:41:47 01:44:37 12° 284° (WNW) 01:47:19 437.405
SWISSCUBE 25 May 01:45:23 01:49:22 27° 68° (ENE) 01:53:22 437.505
SO-50 25 May 01:46:30 01:51:24 81° 301° (WNW) 01:56:21 436.795
Oscar 19 25 May 01:47:48 01:52:04 26° 95° (E) 01:56:18 437.125/150
ITUPSAT 1 25 May 01:49:52 01:53:50 27° 68° (ENE) 01:57:49 437.325
DUCHIFAT 1 25 May 01:53:44 01:56:20 16° 294° (WNW) 01:58:55 145.980
SPROUT 25 May 01:58:04 01:59:54 12° 269° (W) 02:01:44 437.525
PHONESAT 2.4 25 May 02:11:13 02:14:19 56° 359° (N) 02:17:25 2401.200-2431.200
BEESAT 25 May 02:14:47 02:19:21 49° 72° (ENE) 02:23:56 436.000
JAS-2 25 May 02:18:10 02:25:46 83° 286° (WNW) 02:32:33 435.910
BUGSAT 1 25 May 02:25:01 02:27:17 15° 294° (WNW) 02:29:33 437.445
RS-15 25 May 02:28:41 02:40:36 51° 48° (NE) 02:52:26 29.354- 29.394
TISAT 1 25 May 02:32:20 02:35:11 17° 266° (W) 02:38:03 437.305
YUBILEINY 25 May 02:54:27 03:01:30 26° 69° (ENE) 03:08:31 435.215
STARS 25 May 03:10:00 03:11:12 11° 62° (ENE) 03:12:23 437.465
SWISSCUBE 25 May 03:22:58 03:27:03 29° 263° (W) 03:31:11 437.505
Gurwin Techsat 1B 25 May 03:24:51 03:30:12 88° 284° (WNW) 03:35:32 435.225
Oscar 19 25 May 03:26:46 03:31:25 35° 291° (WNW) 03:36:02 437.125/150
ITUPSAT 1 25 May 03:27:26 03:31:33 29° 263° (W) 03:35:43 437.325
SO-50 25 May 03:30:24 03:32:41 13° 320° (NW) 03:34:56 436.795
ISS 25 May 03:40:01 03:41:26 12° 17° (NNE) 03:42:51 145.825
Cosmos 2491 25 May 03:46:49 03:54:04 30° 83° (E) 04:01:17 435.465 / 435.565
AO-7 25 May 03:47:32 03:54:13 26° 95° (E) 04:00:51 29.400- 29.500
PHONESAT 2.4 25 May 03:48:04 03:51:11 82° 196° (SSW) 03:54:18 2401.200-2431.200
MOZHAYETS 4 25 May 03:52:40 03:57:00 44° 72° (ENE) 04:01:20
Cosmos 2504 25 May 03:54:21 03:59:30 17° 65° (ENE) 04:04:47 435.465 / 435.565
BEESAT 25 May 03:54:33 03:57:23 16° 268° (W) 04:00:14 436.000
KKS-1 25 May 03:58:42 04:03:10 76° 75° (ENE) 04:07:39 437.445
ITAMSAT 1 25 May 04:01:12 04:06:27 79° 103° (ESE) 04:11:40 435.822/435.867
JAS-2 25 May 04:05:14 04:09:28 16° 305° (NW) 04:13:31 435.910
RS-15 25 May 04:41:30 04:53:10 52° 250° (WSW) 05:04:44 29.354- 29.394
STARS 25 May 04:42:33 04:46:57 69° 257° (WSW) 04:51:22 437.465
YUBILEINY 25 May 04:50:17 04:58:54 65° 268° (W) 05:07:32 435.215
Gurwin Techsat 1B 25 May 05:07:51 05:09:20 11° 301° (WNW) 05:10:49 435.225
CUBESAT XI-V 25 May 05:10:08 05:14:18 33° 70° (ENE) 05:18:30 437.345
ISS 25 May 05:15:19 05:18:30 49° 35° (NE) 05:21:40 145.825
HORYU 2 25 May 05:18:16 05:22:08 29° 97° (E) 05:25:59 437.375
PHONESAT 2.4 25 May 05:25:22 05:27:39 19° 211° (SSW) 05:29:55 2401.200-2431.200
MOZHAYETS 4 25 May 05:31:35 05:34:22 16° 268° (W) 05:37:09
AO-85 25 May 05:35:48 05:37:15 11° 105° (ESE) 05:38:42 145.980
AO-7 25 May 05:39:12 05:47:27 66° 292° (WNW) 05:55:42 29.400- 29.500
Cosmos 2491 25 May 05:41:41 05:50:19 57° 282° (WNW) 05:59:00 435.465 / 435.565
ITAMSAT 1 25 May 05:42:59 05:45:13 13° 300° (WNW) 05:47:28 435.822/435.867
Cosmos 2504 25 May 05:45:30 05:53:56 87° 81° (E) 06:02:48 435.465 / 435.565
BRITE-PL 25 May 06:04:09 06:06:09 12° 87° (E) 06:08:05 437.365/2234.400
Cubesat XI-IV 25 May 06:09:50 06:12:08 13° 90° (E) 06:14:25 437.490
NOAA 15 25 May 06:14:04 06:18:05 22° 94° (E) 06:22:04 137.62
LilacSat-2 25 May 06:22:39 06:23:59 12° 92° (E) 06:25:21 437.200
GOMX 1 25 May 06:43:18 06:45:21 13° 89° (E) 06:47:21 467.674
CUBESAT XI-V 25 May 06:48:04 06:51:43 22° 266° (W) 06:55:23 437.345
ISS 25 May 06:52:40 06:54:39 15° 231° (SW) 06:56:37 145.825
CUTE-I 25 May 06:54:54 06:59:50 36° 98° (E) 07:04:44 437.470
HORYU 2 25 May 06:55:00 06:58:33 24° 292° (WNW) 07:02:05 437.375
STRAND 1 25 May 06:56:41 07:01:19 37° 69° (ENE) 07:05:59 437.568
AO-85 25 May 07:11:32 07:17:00 87° 122° (ESE) 07:22:25 145.980
NOAA 18 25 May 07:22:43 07:28:13 80° 103° (ESE) 07:33:43 137.9125
AO-7 25 May 07:34:46 07:38:39 14° 312° (NW) 07:42:31 29.400- 29.500
BRITE-PL 25 May 07:40:03 07:45:14 67° 286° (WNW) 07:49:59 437.365/2234.400
Cosmos 2504 25 May 07:41:11 07:46:16 18° 280° (W) 07:51:30 435.465 / 435.565
DOVE 4 25 May 07:44:52 07:48:34 26° 95° (E) 07:52:08 437.250
Cubesat XI-IV 25 May 07:47:21 07:52:42 73° 286° (WNW) 07:58:02 437.490
NOAA 15 25 May 07:53:00 07:58:01 44° 290° (WNW) 08:02:59 137.62
LilacSat-2 25 May 07:54:55 07:58:29 41° 286° (WNW) 08:02:03 437.200
PRISM 25 May 08:03:54 08:07:27 28° 70° (ENE) 08:11:02 437.425
HO-68 25 May 08:05:56 08:11:09 21° 93° (E) 08:16:20 435.675
CUTE 1.7 + AOD 2 25 May 08:13:27 08:15:52 15° 92° (E) 08:18:17 437.475
GOMX 1 25 May 08:19:15 08:23:54 55° 287° (WNW) 08:28:14 467.674
CUTE-I 25 May 08:35:15 08:39:41 27° 293° (WNW) 08:44:07 437.470
CINEMA 3 25 May 08:35:39 08:39:12 26° 96° (E) 08:42:42 145.822/145.860
STRAND 1 25 May 08:36:29 08:40:33 24° 265° (W) 08:44:39 437.568
Cosmos 2499 25 May 08:37:25 08:42:21 16° 64° (ENE) 08:47:20 435.465 / 435.565
AIST 1 25 May 08:37:45 08:41:42 32° 77° (ENE) 08:45:34
JUGNU 25 May 08:43:49 08:45:44 12° 175° (S) 08:47:40 437.505
AUBIESAT-1 25 May 08:43:53 08:46:43 26° 102° (ESE) 08:49:33 437.475
GONETS M04 25 May 08:43:55 08:51:20 30° 71° (ENE) 08:58:42
COMPASS 1 25 May 08:44:58 08:47:46 17° 93° (E) 08:50:32 437.405
M-CUBED/EXP-1 PRIME 25 May 08:47:55 08:51:01 38° 104° (ESE) 08:54:04 437.505
AAUSAT CUBESAT 2 25 May 08:50:28 08:53:00 15° 93° (E) 08:55:31 437.432
AO-85 25 May 08:54:43 08:58:11 17° 317° (NW) 09:01:35 145.980
NOAA 18 25 May 09:05:31 09:08:10 14° 300° (WNW) 09:10:49 137.9125
CANX-2 25 May 09:19:51 09:24:08 80° 283° (WNW) 09:28:25 2200.000
DOVE 4 25 May 09:22:37 09:26:10 24° 292° (WNW) 09:29:36 437.250
SEEDS 25 May 09:28:04 09:32:20 80° 102° (ESE) 09:36:35 437.485
PRISM 25 May 09:39:36 09:42:45 21° 265° (W) 09:45:56 437.425
Oscar 11 25 May 09:41:11 09:44:42 24° 95° (E) 09:48:12 145.826/435.025
CUBEBUG 2 25 May 09:43:05 09:47:07 48° 100° (E) 09:51:10 437.445
DELFI C3 25 May 09:44:35 09:45:19 10° 91° (E) 09:46:03 145.870
CUTE 1.7 + AOD 2 25 May 09:47:50 09:51:53 43° 287° (WNW) 09:55:56 437.475
ZACube-1 25 May 09:49:56 09:53:26 25° 96° (E) 09:56:58 437.345
UNISAT 6 25 May 09:50:30 09:53:51 22° 68° (ENE) 09:57:09 437.425
HO-68 25 May 09:52:14 09:59:21 67° 289° (WNW) 10:06:26 435.675
TIGRISAT 25 May 09:58:44 10:02:19 25° 69° (ENE) 10:05:51 435.000
CINEMA 3 25 May 10:13:00 10:16:13 22° 291° (WNW) 10:19:24 145.822/145.860
AIST 1 25 May 10:16:00 10:19:00 18° 273° (W) 10:21:59
UWE-3 25 May 10:17:17 10:21:28 85° 99° (E) 10:25:42 435.000/436.395/437.385
AUBIESAT-1 25 May 10:19:11 10:21:02 14° 297° (WNW) 10:22:52 437.475
COMPASS 1 25 May 10:19:34 10:23:25 36° 288° (WNW) 10:27:16 437.405
SO-50 25 May 10:19:38 10:24:17 60° 57° (ENE) 10:28:46 436.795
HUMSAT D 25 May 10:22:39 10:24:48 14° 92° (E) 10:26:56 437.325/437.525
AAUSAT CUBESAT 2 25 May 10:24:42 10:28:38 39° 287° (WNW) 10:32:32 437.432
M-CUBED/EXP-1 PRIME 25 May 10:25:00 10:25:13 10° 300° (WNW) 10:25:28 437.505
Cosmos 2499 25 May 10:28:05 10:36:42 82° 83° (E) 10:45:36 435.465 / 435.565
FUNcube-1 25 May 10:29:00 10:33:10 71° 101° (ESE) 10:37:24 145.935
PCSat 25 May 10:30:06 10:35:26 62° 114° (ESE) 10:40:47 145.827
ANTELSAT 25 May 10:30:41 10:35:00 61° 75° (ENE) 10:39:17 437.575/2403.000
JUGNU 25 May 10:32:10 10:33:51 11° 186° (S) 10:35:32 437.505
SRMSAT 25 May 10:32:44 10:34:02 11° 173° (S) 10:35:20 437.500
GONETS M04 25 May 10:40:08 10:48:32 56° 270° (W) 10:56:54
O/OREOS (USA 219) 25 May 10:42:18 10:46:51 70° 291° (WNW) 10:51:24 437.305
DUCHIFAT 1 25 May 11:07:49 11:11:14 24° 69° (ENE) 11:14:40 145.980
CUSAT 1 25 May 11:16:15 11:20:17 18° 79° (E) 11:24:50 437.405
DELFI C3 25 May 11:16:32 11:20:29 53° 285° (WNW) 11:24:24 145.870
Oscar 11 25 May 11:17:06 11:20:46 27° 290° (WNW) 11:24:27 145.826/435.025
CUBEBUG 2 25 May 11:21:24 11:23:20 13° 294° (WNW) 11:25:16 437.445
ZACube-1 25 May 11:26:17 11:29:37 24° 290° (WNW) 11:32:59 437.345
UNISAT 6 25 May 11:26:29 11:30:23 31° 263° (W) 11:34:14 437.425
TIGRISAT 25 May 11:35:11 11:38:54 26° 264° (W) 11:42:34 435.000
BUGSAT 1 25 May 11:36:55 11:40:21 24° 69° (ENE) 11:43:45 437.445
POPSAT HIP 1 25 May 11:41:59 11:46:12 67° 75° (ENE) 11:50:25 437.405
QB50P1 25 May 11:42:38 11:46:52 70° 75° (ENE) 11:51:05 145.935-145.965
HO-68 25 May 11:43:14 11:45:44 12° 308° (NW) 11:48:15 435.675
QB50P2 25 May 11:43:59 11:48:14 77° 75° (ENE) 11:52:29 145.880/145.840
POLYITAN 1 25 May 11:46:26 11:50:40 79° 76° (ENE) 11:54:55 437.675
HUMSAT D 25 May 11:56:40 12:00:36 43° 287° (WNW) 12:04:34 437.325/437.525
SO-50 25 May 12:01:55 12:04:10 14° 253° (WSW) 12:06:23 436.795
NANOSAT C BR1 25 May 12:02:35 12:06:49 71° 259° (WSW) 12:11:03 145.865
AISAT 25 May 12:04:09 12:07:47 25° 95° (E) 12:11:23 437.250
BEESAT 3 25 May 12:08:48 12:12:31 42° 116° (ESE) 12:16:15 437.485
ANTELSAT 25 May 12:11:07 12:12:03 11° 269° (W) 12:13:01 437.575/2403.000
PCSat 25 May 12:15:18 12:19:15 20° 312° (NW) 12:23:14 145.827
SRMSAT 25 May 12:20:21 12:22:17 12° 184° (S) 12:24:13 437.500
Cosmos 2499 25 May 12:23:08 12:28:49 20° 280° (W) 12:34:39 435.465 / 435.565
UKube-1 25 May 12:26:08 12:29:50 27° 97° (E) 12:33:29 .
JAS-2 25 May 12:27:04 12:33:45 42° 67° (ENE) 12:40:56 435.910
DANDE 25 May 12:27:41 12:32:05 30° 85° (E) 12:37:39 436.750
ESTCUBE 1 25 May 12:31:08 12:35:42 74° 102° (ESE) 12:40:14 437.505/2401.250
50 SAT 25 May 12:33:53 12:37:34 62° 101° (E) 12:41:15 437.505
DUCHIFAT 1 25 May 12:43:19 12:46:49 25° 264° (W) 12:50:21 145.980
CUSAT 1 25 May 12:55:22 13:01:16 70° 282° (WNW) 13:08:42 437.405
Oscar 19 25 May 13:03:05 13:07:42 33° 69° (ENE) 13:12:20 437.125/150
CUBEBUG 1 25 May 13:04:01 13:08:23 69° 285° (WNW) 13:12:42 437.445
VELOX 1 25 May 13:04:09 13:08:35 72° 285° (WNW) 13:12:58 145.980
BEESAT 2 25 May 13:06:19 13:10:16 74° 301° (WNW) 13:14:16 435.950
Gurwin Techsat 1B 25 May 13:07:21 13:10:26 16° 62° (ENE) 13:13:31 435.225
DX 1 25 May 13:07:34 13:11:57 79° 285° (WNW) 13:16:17 434.975-435.025
BUGSAT 1 25 May 13:12:06 13:15:37 25° 264° (W) 13:19:08 437.445
AISAT 25 May 13:40:27 13:44:12 27° 291° (WNW) 13:47:55 437.250
ITAMSAT 1 25 May 13:42:00 13:44:09 13° 60° (ENE) 13:46:18 435.822/435.867
SPROUT 25 May 13:42:36 13:46:50 65° 285° (WNW) 13:51:02 437.525
BEESAT 3 25 May 13:47:44 13:50:23 17° 313° (NW) 13:53:05 437.485
Cosmos 2491 25 May 14:00:34 14:03:48 12° 59° (ENE) 14:07:01 435.465 / 435.565
UKube-1 25 May 14:02:16 14:05:45 24° 292° (WNW) 14:09:12 .
DANDE 25 May 14:10:01 14:14:44 34° 291° (WNW) 14:20:47 436.750
ESTCUBE 1 25 May 14:10:45 14:11:52 11° 298° (WNW) 14:12:59 437.505/2401.250
JAS-2 25 May 14:12:06 14:18:40 39° 265° (W) 14:25:50 435.910
TISAT 1 25 May 14:16:00 14:20:11 79° 102° (ESE) 14:24:20 437.305
BEESAT 25 May 14:17:51 14:20:21 14° 92° (E) 14:22:50 436.000
Oscar 19 25 May 14:42:35 14:46:59 28° 264° (W) 14:51:25 437.125/150
CUSAT 1 25 May 14:42:42 14:45:07 12° 304° (NW) 14:47:40 437.405
Gurwin Techsat 1B 25 May 14:44:32 14:49:48 65° 258° (WSW) 14:55:06 435.225
AO-7 25 May 14:45:07 14:52:13 33° 59° (ENE) 14:59:21 29.400- 29.500
AIST 2 25 May 14:55:13 14:59:20 84° 300° (WNW) 15:03:30 435.215
ITAMSAT 1 25 May 15:17:45 15:22:54 79° 255° (WSW) 15:28:07 435.822/435.867
SWISSCUBE 25 May 15:23:38 15:28:27 79° 103° (ESE) 15:33:15 437.505
ITUPSAT 1 25 May 15:28:26 15:33:16 78° 104° (ESE) 15:38:05 437.325
AO-85 25 May 15:45:40 15:50:12 48° 54° (NE) 15:54:19 145.980
MOZHAYETS 4 25 May 15:51:08 15:52:49 12° 91° (E) 15:54:30
KKS-1 25 May 15:52:23 15:55:08 16° 93° (E) 15:57:50 437.445
Cosmos 2491 25 May 15:53:41 16:02:26 69° 81° (E) 16:11:05 435.465 / 435.565
BEESAT 25 May 15:53:46 15:58:27 56° 287° (WNW) 16:03:07 436.000
YUBILEINY 25 May 15:54:05 16:01:20 31° 84° (E) 16:08:33 435.215
HORYU 2 25 May 16:15:14 16:18:44 23° 68° (ENE) 16:22:13 437.375
STARS 25 May 16:34:00 16:37:29 23° 95° (E) 16:40:56 437.465
AO-7 25 May 16:36:31 16:44:34 55° 257° (WSW) 16:52:43 29.400- 29.500
AIST 2 25 May 16:38:08 16:38:29 10° 319° (NW) 16:38:50 435.215
RS-15 25 May 16:51:56 17:01:20 32° 104° (ESE) 17:11:06 29.354- 29.394
SWISSCUBE 25 May 17:04:12 17:05:33 11° 299° (WNW) 17:06:55 437.505
ITUPSAT 1 25 May 17:08:58 17:10:25 11° 299° (WNW) 17:11:53 437.325
NOAA 18 25 May 17:09:41 17:13:07 17° 62° (ENE) 17:16:32 137.9125
BRITE-PL 25 May 17:12:18 17:15:36 16° 62° (ENE) 17:18:55 437.365/2234.400
MOZHAYETS 4 25 May 17:25:47 17:30:21 62° 286° (WNW) 17:34:55
AO-85 25 May 17:27:30 17:30:07 15° 253° (WSW) 17:32:38 145.980
KKS-1 25 May 17:27:41 17:31:52 42° 288° (WNW) 17:36:01 437.445
Cubesat XI-IV 25 May 17:29:54 17:33:39 20° 64° (ENE) 17:37:24 437.490
NOAA 15 25 May 17:32:31 17:37:06 31° 68° (ENE) 17:41:43 137.62
GOMX 1 25 May 17:48:52 17:52:13 17° 64° (ENE) 17:55:32 467.674
YUBILEINY 25 May 17:49:12 17:57:38 53° 282° (WNW) 18:06:06 435.215
HORYU 2 25 May 17:51:16 17:55:08 29° 263° (W) 17:59:00 437.375
Cosmos 2491 25 May 17:52:01 17:58:22 23° 279° (W) 18:04:43 435.465 / 435.565
STARS 25 May 18:10:03 18:13:48 29° 291° (WNW) 18:17:32 437.465
CUTE-I 25 May 18:15:15 18:20:22 52° 72° (ENE) 18:25:31 437.470
Cosmos 2504 25 May 18:22:30 18:29:38 76° 94° (E) 18:37:08 435.465 / 435.565
LilacSat-2 25 May 18:34:58 18:38:45 73° 76° (ENE) 18:42:33 437.200
HO-68 25 May 18:35:27 18:39:05 15° 54° (NE) 18:42:42 435.675
